This is the latest recevied weather packets stored in our database for station/object EA4BHK-10. If no packets are shown the sender has not sent any weather packets the latest 10 day(s).
| Time | Temp. | Humidity | Pressure | Rain* | Wind** | Luminosity | Snow |
|---|---|---|---|---|---|---|---|
| 1778095483 | 12.78° C | 57% | 1012 hPa | - | - | - | - |
| 1778094590 | 12.78° C | 55% | 1011.8 hPa | - | - | - | - |
| 1778093683 | 13.33° C | 52% | 1011.4 hPa | - | - | - | - |
| 1778092783 | 13.33° C | 51% | 1011.4 hPa | - | - | - | - |
| 1778091883 | 13.89° C | 51% | 1011.1 hPa | - | - | - | - |
| 1778090983 | 14.44° C | 51% | 1010.9 hPa | - | - | - | - |
| 1778090083 | 14.44° C | 46% | 1010.9 hPa | - | - | - | - |
| 1778089178 | 14.44° C | 45% | 1010.9 hPa | - | - | - | - |
| 1778088278 | 15° C | 44% | 1010.8 hPa | - | - | - | - |
| 1778087378 | 15° C | 40% | 1010.7 hPa | - | - | - | - |
| 1778086480 | 16.67° C | 35% | 1010.3 hPa | - | - | - | - |
| 1778085578 | 17.22° C | 31% | 1009.9 hPa | - | - | - | - |
| 1778084678 | 17.78° C | 26% | 1009.7 hPa | - | - | - | - |
| 1778083778 | 18.33° C | 28% | 1009.5 hPa | - | - | - | - |
| 1778082878 | 18.89° C | 28% | 1009.4 hPa | - | - | - | - |
| 1778081978 | 19.44° C | 28% | 1009.2 hPa | - | - | - | - |
| 1778081078 | 19.44° C | 27% | 1009.4 hPa | - | - | - | - |
| 1778080178 | 18.89° C | 28% | 1009.7 hPa | - | - | - | - |
| 1778079280 | 20° C | 25% | 1009.3 hPa | - | - | - | - |
| 1778078378 | 20.56° C | 27% | 1009.3 hPa | - | - | - | - |
| 1778077478 | 20.56° C | 26% | 1009.5 hPa | - | - | - | - |
| 1778076578 | 20° C | 28% | 1009.9 hPa | - | - | - | - |
| 1778075678 | 20° C | 26% | 1010.3 hPa | - | - | - | - |
| 1778074785 | 19.44° C | 28% | 1010.5 hPa | - | - | - | - |
| 1778073878 | 19.44° C | 28% | 1010.6 hPa | - | - | - | - |
* Rain since midnight (hover to see other rain measurements)
** Current wind speed in m/s (hover to see current wind gust speed)